Regional Weather Roundup
Issued by NWS Goodland, KS

Home | Current Version | Previous Version | Text Only | Print | Product List | Glossary Off
Versions: 1 2 3 4 5 6 7 8 9 10 11 12 13 14 15 16 17 18 19 20 21 22 23 24 25 26 27 28 29 30 31 32 33 34 35 36 37 38 39 40 41 42 43 44 45 46 47 48 49 50

000
ASUS43 KGLD 041259
RWRGLD

GOODLAND FORECAST AREA HOURLY WEATHER ROUNDUP
NATIONAL WEATHER SERVICE GOODLAND KS
700 AM MDT TUE AUG 04 2015

...OFFICIAL OBSERVATIONS...

CITY           SKY/WX    TMP DP  RH WIND       PRES   REMARKS
GOODLAND KS    SUNNY     64  60  87 SE6       29.97S
HILL CITY KS   MOSUNNY   72  67  84 CALM      29.95R
IMPERIAL NEB   CLOUDY    67  66  97 E5        29.98R FOG
MCCOOK NEB       N/A     67  66  97 E6        29.96R FOG
AKRON CO       SUNNY     63  54  72 W9        30.03R
BURLINGTON CO  SUNNY     65  59  81 SW6       30.00R
LIMON CO       SUNNY     54  50  86 N3        30.06R
$$

...UNOFFICIAL OBSERVATIONS...

CITY           SKY/WX    TMP DP  RH WIND       PRES   REMARKS
COLBY KS       CLOUDY    70  70 100 SE8       29.98S
NORTON KS      SUNNY     68  63  83 E5        29.94
SHARON SPRINGS   N/A     66  64  94 CALM        N/A
KIT CARSON CO    N/A     58  55  90 MISG        N/A
YUMA CO          N/A     59  56  91 CALM        N/A
$$


USA.gov is the U.S. government's official web portal to all federal, state and local government web resources and services.